Theta_e
332 329 318 319 319 320 321 320 314 313 317 320 320 318 315 312 309 309 306 306 308 311 319 318 318 319 315 319 339 341 341 341 339 339 340 340 340 345 346 341 337 345 337
327 328 319 319 320 321 321 318 314 313 315 318 319 319 317 313 313 311 308 306 308 310 318 325 323 325 321 312 335 341 341 342 341 341 341 340 340 342 344 338 340 341 335
326 328 321 319 321 320 319 317 314 316 316 318 319 319 319 315 315 315 312 307 309 310 316 325 329 327 326 314 329 340 341 342 341 341 342 340 340 342 341 337 335 335 333
326 322 327 320 314 317 315 316 316 318 319 320 320 321 320 318 320 319 315 310 311 313 314 321 326 327 329 321 323 337 341 341 342 341 341 341 340 342 339 335 334 333 333
325 325 324 315 316 316 316 317 317 318 320 320 320 321 320 324 325 324 322 313 315 324 323 325 327 328 327 328 319 331 340 341 341 341 340 341 341 342 338 333 331 332 333
322 322 322 316 315 316 316 317 318 318 319 320 321 321 323 323 325 325 324 318 310 322 322 324 326 329 325 328 320 328 336 340 341 341 341 340 341 340 336 333 330 329 329
321 321 322 319 315 316 316 316 316 317 318 320 321 323 323 323 324 325 326 323 315 317 322 317 322 329 329 325 325 324 336 338 340 341 340 341 340 340 337 333 327 326 329
318 316 320 320 315 315 316 316 314 314 317 320 320 319 319 319 321 324 325 325 323 323 320 313 317 327 329 327 326 320 333 336 339 341 342 340 340 339 335 333 329 331 331
315 317 320 318 318 312 311 314 319 320 319 319 320 320 321 321 321 323 324 324 323 321 322 314 310 323 328 328 327 321 329 335 338 339 339 340 339 336 334 331 330 330 331
318 318 319 319 318 320 322 320 320 320 320 319 319 319 322 321 321 321 324 324 322 322 323 322 312 321 326 328 326 323 323 335 337 336 331 336 338 334 337 336 330 330 332
319 318 319 319 322 322 322 322 320 321 319 318 318 320 320 322 326 326 324 324 322 322 321 321 312 320 326 328 326 323 321 333 337 337 333 335 337 337 334 329 329 331 329
319 318 318 322 321 320 323 324 324 322 320 319 319 319 320 322 323 323 324 323 323 323 321 321 315 321 325 330 329 323 329 332 336 341 335 333 334 336 336 332 333 332 333
320 318 317 322 321 320 323 324 324 323 323 322 321 319 319 319 321 320 322 322 323 323 325 324 320 324 329 328 330 328 327 331 336 340 337 336 336 339 331 330 328 327 327
319 318 323 323 322 320 322 324 324 324 324 325 323 318 320 321 322 320 320 322 323 324 325 324 324 328 328 327 330 329 328 333 335 339 337 337 336 337 332 331 329 328 334
318 324 325 322 321 321 323 324 324 323 323 321 319 318 320 320 319 319 321 321 323 324 324 324 326 328 326 327 331 330 330 332 332 337 337 337 338 337 331 330 333 332 332
319 326 324 324 325 324 324 323 323 324 322 323 316 318 321 319 320 318 321 321 321 324 324 326 326 328 329 329 329 329 331 333 336 337 334 336 336 335 331 335 334 331 332
321 326 324 325 326 325 325 325 324 324 322 323 324 321 321 320 321 320 320 320 323 324 323 325 325 328 329 329 330 329 331 333 336 337 335 334 334 332 333 330 325 328 327
323 325 323 325 326 326 325 325 325 325 323 321 321 321 322 321 321 322 321 319 320 319 323 326 327 328 328 329 329 328 331 332 335 337 336 334 334 332 329 327 329 326 325
322 324 323 325 326 321 322 324 325 323 323 322 321 321 322 321 321 321 322 322 321 323 324 326 327 327 328 329 329 328 329 332 336 337 335 336 331 327 328 331 327 326 325
321 323 321 325 325 320 327 326 325 325 325 323 320 319 321 322 322 321 323 323 321 324 324 325 327 328 328 329 328 329 331 333 336 336 334 333 333 326 329 327 328 326 326
321 324 325 324 324 322 327 328 328 327 323 322 322 323 324 322 321 321 324 321 322 326 326 326 328 328 329 329 329 330 333 333 334 333 332 331 328 326 328 330 330 327 330
320 323 325 325 322 323 326 325 327 327 325 325 324 325 323 323 322 323 323 323 324 324 325 326 328 328 329 329 331 333 332 332 333 331 330 328 329 329 330 329 329 330 332
321 323 323 324 322 323 323 328 326 327 327 326 326 325 325 323 322 323 323 325 325 325 326 326 328 330 329 327 333 332 331 331 332 331 329 331 328 330 331 330 330 330 330
321 322 323 324 321 324 323 326 328 328 328 327 327 326 326 326 325 324 324 324 325 326 325 326 327 329 330 328 331 330 329 330 330 331 332 329 330 331 331 331 331 330 330
321 322 324 326 320 324 323 322 326 329 329 327 326 325 325 327 326 325 325 324 324 325 325 325 326 330 330 331 330 329 329 327 330 329 329 330 330 328 329 328 331 328 327
321 321 323 326 322 325 327 324 325 325 327 327 328 325 324 326 327 327 326 325 324 325 325 327 328 326 328 330 328 326 326 327 327 329 329 328 328 329 330 330 330 329 329
Wind_Speed
5 4 6 8 10 12 15 17 18 17 16 16 16 16 15 14 13 15 16 18 17 15 13 11 10 12 13 12 15 20 24 25 25 24 21 17 11 11 14 13 14 15 14
5 7 9 11 12 14 17 18 17 17 17 18 20 20 18 16 14 16 16 18 18 17 13 11 11 11 13 13 14 16 22 25 27 26 24 19 14 12 16 14 18 16 15
4 8 10 10 14 17 17 17 18 19 19 20 22 23 22 21 18 16 17 17 19 18 14 12 12 12 13 13 12 15 19 23 28 26 24 22 20 15 16 17 18 17 16
4 8 8 13 13 16 16 18 19 20 21 22 24 25 25 22 21 18 17 18 18 18 15 14 12 12 11 14 13 14 16 19 25 25 26 24 21 19 20 17 19 18 17
6 7 10 14 13 14 18 19 21 21 22 23 25 26 26 23 23 23 18 19 17 16 15 14 11 12 14 14 15 13 14 16 20 26 28 24 22 22 25 20 17 18 17
7 10 13 15 15 17 20 21 22 23 24 25 25 26 26 27 25 24 23 18 20 16 15 14 13 13 14 14 16 13 12 14 16 20 25 24 24 24 27 27 21 18 17
9 12 12 18 19 19 21 22 23 24 26 26 27 27 28 29 27 26 25 21 20 19 17 17 16 17 16 16 15 15 13 14 15 19 23 25 23 27 29 26 23 20 20
10 14 14 14 18 20 22 23 25 25 26 28 30 32 33 34 29 27 26 23 20 19 20 19 17 20 16 15 16 16 14 15 14 17 21 21 22 25 27 28 26 21 20
12 12 10 14 16 20 21 22 23 25 28 32 34 33 28 29 27 25 26 24 20 17 16 18 19 20 17 17 19 17 16 15 14 13 19 22 23 28 32 28 27 22 20
7 8 11 14 13 14 13 21 23 26 27 29 31 29 24 23 22 22 25 22 19 20 16 15 18 18 21 18 20 17 17 17 16 15 16 20 29 30 29 28 27 23 23
9 11 12 12 12 15 15 17 21 23 23 22 19 19 21 14 13 14 18 21 23 22 18 14 18 21 21 20 20 18 18 18 18 15 16 16 26 28 30 31 26 22 21
9 11 12 11 15 18 13 15 16 16 19 14 13 14 15 13 13 15 17 17 19 21 18 16 18 20 20 17 18 20 15 20 18 19 19 19 22 28 30 28 28 24 24
8 10 10 12 17 17 12 14 12 16 14 12 11 10 11 13 15 14 14 18 19 19 17 14 14 16 15 19 18 17 17 20 18 19 19 23 26 27 28 31 29 27 23
8 9 9 11 16 16 14 10 13 13 12 10 8 7 6 6 10 13 17 14 21 21 18 15 14 16 19 19 19 18 18 18 19 17 20 26 30 29 30 29 26 24 26
8 9 9 13 13 12 11 9 11 11 8 9 9 7 6 5 5 6 10 14 20 19 17 15 13 14 17 18 19 18 18 19 17 20 21 25 29 28 28 28 28 26 26
6 7 9 10 10 9 9 10 10 10 8 8 7 6 7 5 4 1 4 10 16 16 14 14 13 15 16 17 18 17 18 17 18 22 26 27 28 24 30 29 28 28 27
4 6 8 9 8 8 10 10 9 8 10 8 7 7 7 5 3 2 6 9 12 16 16 13 14 16 17 16 17 16 18 17 21 25 25 27 31 30 26 32 25 25 26
2 5 8 7 8 10 10 10 9 9 9 9 8 8 8 7 6 4 7 11 13 14 14 14 15 16 17 18 17 15 18 19 20 24 26 32 33 34 33 28 27 25 29
2 4 6 7 8 10 9 10 10 10 9 8 6 7 8 9 9 7 7 10 13 13 14 16 17 17 18 17 17 16 21 20 19 25 34 33 30 29 27 28 28 28 33
1 3 5 6 9 11 10 12 12 10 8 7 8 11 9 8 9 9 9 11 13 13 14 15 18 17 16 16 15 17 19 22 21 29 33 30 29 35 30 28 29 32 33
1 2 4 5 8 10 8 11 13 12 8 6 8 11 12 11 8 10 10 13 12 12 12 15 15 16 16 17 16 17 18 21 24 28 31 33 34 36 28 27 27 30 29
2 1 2 4 7 10 8 11 11 8 7 10 14 9 9 6 9 10 13 14 14 13 13 14 14 13 14 17 22 22 17 21 26 29 32 34 28 29 25 26 29 27 26
4 3 0 3 7 10 11 9 12 9 8 8 14 22 21 5 5 9 13 14 14 13 13 16 15 14 17 19 24 15 13 8 29 26 32 31 29 25 26 26 26 27 23
6 5 2 3 7 8 11 9 12 9 6 5 8 14 15 15 9 9 12 15 16 14 16 18 17 17 19 21 20 17 14 34 12 22 30 33 27 25 24 24 22 27 24
9 7 3 2 5 8 10 11 10 10 10 4 5 11 18 12 14 12 12 14 15 16 18 20 20 18 20 25 23 22 28 29 23 21 29 34 29 25 21 20 21 27 22
10 8 4 2 4 5 6 10 12 14 14 11 2 3 12 13 12 9 11 15 13 16 19 20 19 23 26 21 23 25 22 24 19 28 35 33 29 24 24 25 22 19 17
Wind_Direction
184 204 320 315 314 301 295 304 309 309 308 305 305 308 315 316 306 298 287 275 274 277 280 272 255 237 227 220 216 215 212 205 209 210 207 208 204 191 179 162 148 158 153
202 219 301 299 295 283 286 296 301 300 301 300 299 301 304 305 301 294 284 274 270 271 269 273 260 237 231 221 216 216 215 210 208 213 212 207 205 202 179 163 149 162 155
193 231 280 282 275 274 280 289 293 289 289 289 292 296 297 296 296 287 281 272 267 264 259 252 249 241 238 221 221 215 215 214 212 213 213 207 207 201 179 170 166 156 154
246 271 253 286 293 272 278 274 276 276 278 278 283 286 288 290 294 293 275 269 261 259 255 252 244 249 234 225 223 217 216 213 214 208 210 205 203 195 167 167 162 154 155
257 268 276 294 274 268 272 275 277 282 277 275 277 278 281 283 286 288 288 264 253 254 252 248 240 239 226 231 219 220 216 218 218 218 207 203 197 186 165 161 159 154 157
271 272 277 276 271 268 273 276 278 279 278 277 276 278 279 280 275 272 277 268 250 245 242 242 228 231 242 226 219 216 214 214 217 219 211 202 207 179 175 167 159 158 162
275 278 283 286 282 273 277 279 280 279 278 277 277 276 278 278 274 270 261 267 248 241 247 238 229 232 223 227 220 215 214 208 210 211 202 193 205 187 173 161 150 159 174
281 291 289 287 286 277 278 277 280 280 279 279 279 280 280 277 272 262 259 252 246 244 245 244 232 224 226 213 218 214 214 208 202 200 190 186 194 184 172 163 157 167 171
295 300 294 295 287 290 284 280 280 279 279 281 283 280 275 271 263 254 253 247 242 239 249 241 226 220 228 218 211 208 211 202 194 191 202 184 186 168 163 155 157 163 168
300 299 298 300 290 287 284 288 283 286 285 283 280 277 271 269 262 251 245 238 229 231 235 243 215 219 225 219 209 204 204 198 188 198 205 221 175 169 166 161 157 166 170
299 303 302 298 289 295 293 290 294 294 290 290 279 275 272 273 254 248 243 228 226 230 233 238 217 215 219 218 210 200 198 195 188 188 182 178 178 173 160 155 156 167 172
300 302 300 292 303 308 300 295 302 300 305 304 283 274 269 260 249 241 236 232 229 227 225 230 222 216 220 215 208 197 192 193 193 185 187 185 185 176 172 165 160 166 170
300 311 301 300 315 310 294 296 296 301 305 308 306 295 273 264 249 244 239 238 232 222 222 227 228 220 211 213 193 197 195 193 189 192 195 187 176 181 160 159 154 155 167
307 315 311 308 313 309 310 302 292 309 295 312 297 295 299 278 275 263 244 226 219 220 219 213 207 211 210 195 189 194 195 193 192 189 195 189 183 185 170 165 159 172 172
321 317 320 315 316 318 316 298 302 305 305 299 294 283 278 274 300 284 229 218 206 212 211 206 204 207 197 186 182 193 194 189 196 193 185 185 182 176 165 169 163 162 163
318 321 322 323 317 315 320 317 315 310 310 310 305 285 275 283 282 303 217 201 186 183 192 195 195 192 181 184 180 192 195 188 193 183 169 178 188 190 173 171 163 166 167
317 319 333 331 318 322 326 317 309 304 314 295 295 284 265 260 267 192 158 159 171 182 180 181 177 173 176 177 181 191 191 192 190 184 178 167 176 163 171 160 158 172 171
318 315 342 328 326 324 319 319 310 296 314 306 288 267 255 257 257 222 174 166 166 171 171 170 171 173 177 180 181 186 191 190 187 184 183 171 166 163 160 160 168 172 170
305 323 341 333 341 351 337 338 324 329 322 319 307 285 264 250 248 241 205 180 173 170 169 165 170 171 178 179 180 185 195 186 174 175 167 166 163 155 161 167 169 171 169
282 321 353 338 353 353 349 344 342 343 331 334 315 308 275 257 247 235 206 184 175 168 170 164 160 169 178 179 177 192 184 182 161 175 164 168 162 163 160 165 172 169 163
252 295 315 333 352 359 360 353 358 357 358 360 350 336 324 235 234 211 194 192 176 175 168 167 162 170 171 169 175 168 172 173 171 168 170 172 166 163 163 170 170 168 167
203 226 307 335 352 8 355 350 2 7 31 44 41 35 16 169 193 191 190 180 174 178 168 171 166 166 169 168 162 159 150 159 168 168 167 162 169 168 171 173 167 165 164
187 191 224 3 30 30 33 9 26 31 53 69 58 55 54 95 164 186 179 167 170 174 185 179 174 171 165 166 168 159 144 156 148 156 162 171 151 161 167 165 168 162 160
177 175 129 37 60 35 45 24 25 31 40 48 58 55 58 65 121 131 170 177 178 183 195 179 175 165 164 162 164 155 160 151 141 145 150 151 157 155 156 156 161 160 159
172 172 153 73 65 57 42 35 34 27 10 30 70 77 55 59 87 99 136 159 163 173 180 177 169 159 161 153 156 140 138 151 142 142 135 139 152 155 153 149 148 135 148
171 169 159 111 83 70 51 37 44 44 43 39 51 68 66 74 89 94 120 140 148 156 164 159 154 154 155 151 147 146 146 153 184 144 145 149 152 156 163 156 152 155 163